Flag for Slovenia Weather past 2 weeks in Ljubljana, Slovenia

Now
50 °F

Passing clouds.


Feels Like: 48 °F
Forecast: 26 / 50 °F
Wind: 6 mph from East

Location: Ljubljana / Bezigrad

Current Time: Mar 6, 2015 at 4:01:26 PM

Latest Report: Mar 6, 2015 at 3:00 PM


Visibility: 38 mi

Pressure: 30.41 "Hg

Humidity: 29%

Dew point: 19 °F

Location of LjubljanaLocation

Historic Weather in Ljubljana — Graph

°F

Ljubljana temperature yesterday

Maximum temperature yesterday: 48 °F (at 2:00 PM)
Minimum temperature yesterday: 38 °F (at 12:00 AM)
Average temperature yesterday: 43 °F

Past Weeks' High & Low Weather Summary

 TemperatureHumidityPressure
High55 °F (Mar 3, 4:00 PM)100% (Mar 3, 9:00 AM)30.49 "Hg (Mar 3, 9:00 AM)
Low26 °F (Feb 20, 6:00 AM)30% (Mar 5, 4:00 PM)29.66 "Hg (Feb 24, 5:00 AM)
Average41 °F73%30.02 "Hg
* Reported Feb 19 1:00 PM — Mar 6 1:00 PM, Ljubljana, Weather by CustomWeather, © 2015

Note: Actual official high and low records may vary slightly from our data, if they occured in-between our weather recording intervals... More about our weather records

Advertising

Ljubljana weather history for previous 24 hours

 ConditionsComfort  
Time TempWeatherWind HumidityBarometerVisibility
1:00 PM
Fri, Mar 6
48 °FScattered clouds.8 mph32%30.45 "Hg25 mi
12:00 PM47 °FScattered clouds.6 mph36%30.48 "Hg25 mi
11:00 AM45 °FPassing clouds.8 mph36%30.49 "Hg19 mi
10:00 AM44 °FPassing clouds.7 mph38%30.47 "Hg19 mi
9:00 AM41 °FPassing clouds.5 mph39%30.48 "Hg19 mi
8:00 AM39 °FPassing clouds.5 mph41%30.48 "Hg19 mi
7:00 AM36 °FPassing clouds.2 mph44%30.47 "Hg19 mi
6:00 AM37 °FPassing clouds.2 mph41%30.47 "Hg19 mi
5:00 AM38 °FChilly.3 mph38%30.46 "HgN/A
3:00 AM40 °FChilly.8 mph37%30.43 "HgN/A
2:00 AM40 °FQuite cool.7 mph36%30.43 "HgN/A
1:00 AM40 °FQuite cool.7 mph37%30.41 "HgN/A
12:00 AM40 °FQuite cool.7 mph43%30.39 "HgN/A
11:00 PM
Thu, Mar 5
41 °FQuite cool.8 mph39%30.37 "HgN/A
9:00 PM42 °FPassing clouds.7 mph40%30.30 "Hg31 mi
8:00 PM42 °FPassing clouds.8 mph36%30.28 "Hg31 mi
7:00 PM43 °FPassing clouds.7 mph37%30.28 "Hg31 mi
6:00 PM44 °FPassing clouds.7 mph36%30.25 "Hg31 mi
5:00 PM46 °FPartly sunny.8 mph32%30.23 "Hg31 mi
4:00 PM47 °FPartly sunny.8 mph30%30.22 "Hg31 mi
Weather by CustomWeather, © 2015

See weather overviewHow to use our weather pages